Погода в Мигово

Украина / Черновицкая область     48°08′59″N   25°22′49″E
темп.,
°C
ветер,
м/с
пор.,
м/с
влажн.,
%
обл.,
%
осадки,
мм/ч
давл.,
гПа
погр.,
м
12 мая, ср
ср1200:00+9ююв36800 0.0 101678
03:00+8ююв33800 0.0 101534
06:00+8ююв22810 0.0 101322
09:00+14вюв46690 0.0 1012444
12:00+14в788799 0.2 1012668
15:00+12вюв6886100 0.2 1012789
18:00+11юв6108294 0.0 1011626
21:00+10юв4118193 0.0 1010544
13 мая, чт
чт1300:00+9юв51183100 0.0 1009641
03:00+9юв5983100 0.0 1008496
06:00+8юв4890100 0.0 1006397
09:00+11юв588792 0.1 1005504
12:00+16вюв5675100 0.3 1003644
15:00+14юв4786100 2.4 1003240
18:00+14юв3586100 0.9 1003185
21:00+11юв3694100 1.2 1004105
14 мая, пт
пт1400:00+10ююв228968 0.0 100430
03:00+11юз228377 0.0 100418
06:00+10ююз1184100 0.0 100514
09:00+12ю1278100 0.0 100585
12:00+15ю3572100 0.5 1006763
15:00+16ссз236996 1.3 1007629
18:00+17ссз125546 0.1 10071196
21:00+11юз366950 0.1 1009123
15 мая, сб
сб1500:00+10юз357318 0.0 101066
03:00+11ююз2271100 0.0 101033
06:00+10зсз0185100 0.4 101111
09:00+14юв126996 0.4 1011415
12:00+17св316577 0.9 10111019
15:00+17в226874 3.9 1011867
18:00+16в237696 4.1 1011363
21:00+11вюв229073 7.1 101115
16 мая, вс
вс1600:00+10ююз119138 0.1 101111
03:00+9ююз119240 0.1 101111
06:00+9зюз1194100 0.4 101010
09:00+12в2389100 0.9 1010350
12:00+12вюв3696100 0.8 1010289
15:00+14вюв2492100 1.8 1010261
18:00+15ююв358481 0.5 1009411
21:00+12ю228782 0.5 100915